TimeMST,TemperatureF,Dew PointF,Humidity,Sea Level PressureIn,VisibilityMPH,Wind Direction,Wind SpeedMPH,Gust SpeedMPH,PrecipitationIn,Events,Conditions,WindDirDegrees,DateUTC
12:53 AM,8.1,1.9,76,30.10,10.0,ESE,23.0,31.1,N/A,,Clear,110,2013-01-24 07:53:00
1:53 AM,9.0,3.0,77,30.10,10.0,East,21.9,-,N/A,,Scattered Clouds,100,2013-01-24 08:53:00
2:53 AM,9.0,3.9,80,30.06,10.0,ESE,24.2,29.9,N/A,,Overcast,110,2013-01-24 09:53:00
3:53 AM,10.9,5.0,77,30.03,10.0,ESE,19.6,-,N/A,,Overcast,110,2013-01-24 10:53:00
4:53 AM,12.0,7.0,80,29.99,10.0,ESE,15.0,-,N/A,,Overcast,110,2013-01-24 11:53:00
5:53 AM,12.9,8.1,81,29.98,10.0,ESE,12.7,-,N/A,,Overcast,110,2013-01-24 12:53:00
6:53 AM,15.1,10.0,80,29.97,10.0,ESE,12.7,-,N/A,,Overcast,110,2013-01-24 13:53:00
7:53 AM,16.0,10.9,81,29.96,10.0,East,11.5,-,N/A,,Overcast,100,2013-01-24 14:53:00
8:53 AM,17.1,12.0,81,29.96,10.0,ESE,6.9,-,N/A,,Scattered Clouds,110,2013-01-24 15:53:00
9:53 AM,17.1,12.0,81,29.98,10.0,SE,5.8,-,N/A,,Clear,140,2013-01-24 16:53:00
10:53 AM,19.9,14.0,78,29.99,10.0,SSW,4.6,-,N/A,,Clear,200,2013-01-24 17:53:00
11:53 AM,24.1,16.0,71,29.98,10.0,West,6.9,-,N/A,,Clear,260,2013-01-24 18:53:00
12:53 PM,27.0,17.1,66,29.98,10.0,West,8.1,-,N/A,,Clear,280,2013-01-24 19:53:00
1:53 PM,28.9,19.9,69,29.99,10.0,NW,12.7,-,N/A,,Clear,310,2013-01-24 20:53:00
2:53 PM,30.0,21.0,69,30.02,10.0,NW,15.0,-,N/A,,Clear,310,2013-01-24 21:53:00
3:53 PM,28.9,21.0,72,30.04,10.0,WNW,8.1,-,N/A,,Clear,300,2013-01-24 22:53:00
4:53 PM,25.0,19.9,81,30.06,10.0,WNW,6.9,-,N/A,,Clear,290,2013-01-24 23:53:00
5:53 PM,25.0,19.9,81,30.08,10.0,West,11.5,-,N/A,,Clear,270,2013-01-25 00:53:00
6:53 PM,21.9,18.0,85,30.11,10.0,WNW,8.1,-,N/A,,Clear,300,2013-01-25 01:53:00
7:53 PM,23.0,18.0,81,30.12,10.0,WNW,9.2,-,N/A,,Clear,290,2013-01-25 02:53:00
8:53 PM,19.0,16.0,88,30.13,10.0,Calm,Calm,-,N/A,,Clear,0,2013-01-25 03:53:00
9:53 PM,18.0,14.0,84,30.14,10.0,West,5.8,-,N/A,,Clear,270,2013-01-25 04:53:00
10:53 PM,18.0,14.0,84,30.15,10.0,NW,5.8,-,N/A,,Clear,310,2013-01-25 05:53:00
11:53 PM,18.0,14.0,84,30.15,10.0,WSW,5.8,-,N/A,,Clear,240,2013-01-25 06:53:00